Regional Weather Roundup
Issued by NWS Sioux Falls, SD

Home | Current Version | Previous Version | Text Only | Print | Product List | Glossary On
Versions: 1 2 3 4 5 6 7 8 9 10 11 12 13 14 15 16 17 18 19 20 21 22 23 24 25 26 27 28 29 30 31 32 33 34 35 36 37 38 39 40 41 42 43 44 45 46 47 48 49 50
000
ASUS43 KFSD 230810
RWRFSD

WEATHER ROUNDUP FOR SE SOUTH DAKOTA/SW MINNESOTA/NW IOWA
NATIONAL WEATHER SERVICE SIOUX FALLS SD
300 AM CDT TUE SEP 23 2014

NOTE: "FAIR" INDICATES FEW OR NO CLOUDS BELOW 12,000 FEET WITH NO
SIGNIFICANT WEATHER AND OR OBSTRUCTIONS TO VISIBILITY.


SDZ038>040-050-052>070-230900-
SOUTHEAST SOUTH DAKOTA

CITY           SKY/WX    TMP DP  RH WIND       PRES   REMARKS
CHAMBERLAIN    CLOUDY    60  55  83 SE10      30.02F
HURON          MOCLDY    63  51  65 S9        30.04F
MADISON        FAIR      55  50  82 S9        30.09F
MITCHELL       CLOUDY    62  54  74 S12       30.07S
SIOUX FALLS    CLOUDY    60  50  69 S9        30.11F
WINNER         CLOUDY    62  54  74 S16G24    30.00F
YANKTON        CLOUDY    57  52  82 SE3       30.11F
$$

MNZ071-072-080-081-089-090-097-098-230900-
SOUTHWEST MINNESOTA

CITY           SKY/WX    TMP DP  RH WIND       PRES   REMARKS
FAIRMONT       CLEAR     46  41  81 S6        30.19S
JACKSON        CLEAR     52  46  82 S7        30.18S
LUVERNE        CLEAR     50  46  87 CALM      30.14F
MARSHALL       CLEAR     52  45  76 S10       30.12S
MONTEVIDEO     CLEAR     54  48  82 S6        30.13F
PIPESTONE      CLEAR     55  48  76 S6        30.12F
REDWOOD FALLS  CLEAR     50  46  86 S7        30.14F
TRACY          CLEAR     54  49  81 S9        30.14S
WINDOM         CLEAR     52  48  87 S3        30.17S
WORTHINGTON    CLEAR     54  46  76 S6        30.16F
$$

IAZ001>003-012>014-020>022-031-032-NEZ013-014-SDZ071-230900-
NORTHWEST IOWA

CITY           SKY/WX    TMP DP  RH WIND       PRES   REMARKS
CHEROKEE       PTCLDY    53  50  92 SE3       30.16F
DENISON        PTCLDY    57  52  82 VRB7      30.16F
ESTHERVILLE    CLEAR     46  44  93 S5        30.18S
LE MARS          N/A     55  52  88 S5        30.14F
ORANGE CITY    PTCLDY    55  46  71 SE5       30.14F
SHELDON        CLEAR     52  50  93 SE8       30.14F
SIOUX CITY     CLOUDY    57  53  86 SE7       30.14F
SPENCER        CLEAR     50  46  86 SE7       30.17F
$$

ABBREVIATIONS USED IN REMARKS
   TC - TEMPERATURE IN CELSIUS
  WCI - WIND CHILL INDEX
   HX - HEAT INDEX
  VSB - VISIBILITY



USA.gov is the U.S. government's official web portal to all federal, state and local government web resources and services.